Wilson Lisbon — 5BNU3 — position and weather

sailwx.info

Track history (hours):
 
Tides and Currents Weather Stations Pressure Air Temp Water Temp Dewpoint Dewpoint Depression Visibility Wind Speed Wind Dir Waves Ship Positions

Wilson Lisbon

Last reported at 2014-Jul-25 09:25 UTC. Time now 2014-Jul-25 11:23 UTC.
Position N 56°25' E 010°56'.

Length 90 m; draft 5.4 m.

Type: Ship. MMSI: 212376000.

Date/timePositionNaut miles runAvg speedWind from/ knotsBaromVisibWave heightAir tempDewpointWater temp
2014-Jul-25 09:25N 56°25' E 010°56'0 0.0
2014-Jul-25 08:07N 56°25' E 010°56'0 0.0
2014-Jul-25 07:31N 56°25' E 010°56'0 0.0
2014-Jul-25 06:25N 56°25' E 010°56'0 0.0
2014-Jul-25 05:31N 56°25' E 010°56'0 0.0
2014-Jul-25 04:04N 56°25' E 010°56'0 0.0
2014-Jul-25 03:13N 56°25' E 010°56'0 0.0
2014-Jul-25 02:31N 56°25' E 010°56'0 0.0
2014-Jul-25 01:25N 56°25' E 010°56'0 0.0
2014-Jul-25 00:13N 56°25' E 010°56'0 0.0
2014-Jul-24 23:25N 56°25' E 010°56'0 0.0
2014-Jul-24 21:25N 56°25' E 010°56'0 0.0
2014-Jul-24 20:25N 56°25' E 010°56'0 0.0
2014-Jul-24 19:25N 56°25' E 010°56'0 0.0
2014-Jul-24 18:16N 56°25' E 010°56'0 0.0
2014-Jul-24 17:31N 56°25' E 010°56'0 0.0
2014-Jul-24 16:31N 56°25' E 010°56'0 0.0
2014-Jul-24 15:31N 56°25' E 010°56'0 0.0
2014-Jul-24 06:30N 56°25' E 010°55'0 0.0
2014-Jul-24 05:30N 56°25' E 010°55'0 0.0
2014-Jul-24 04:30N 56°25' E 010°55'0 0.0
2014-Jul-24 00:18N 56°25' E 010°55'0 0.0
2014-Jul-23 23:18N 56°25' E 010°55'0 0.0
2014-Jul-23 22:30N 56°25' E 010°55'0 0.0
2014-Jul-23 21:18N 56°25' E 010°55'0 0.0
2014-Jul-23 20:30N 56°25' E 010°55'0 0.0
2014-Jul-23 16:30N 56°25' E 010°55'0 0.0
2014-Jul-23 15:12N 56°25' E 010°55'0 0.0
2014-Jul-23 13:30N 56°25' E 010°55'0 0.0
2014-Jul-23 09:06N 56°25' E 010°55'0 0.0
2014-Jul-23 06:30N 56°25' E 010°55'0 0.0
2014-Jul-23 05:06N 56°25' E 010°55'0 0.0
2014-Jul-23 04:24N 56°25' E 010°55'0 0.0
2014-Jul-23 03:24N 56°25' E 010°55'0 0.0
2014-Jul-23 01:30N 56°25' E 010°55'0 0.0
2014-Jul-23 00:30N 56°25' E 010°55'0 0.0
2014-Jul-22 23:30N 56°25' E 010°55'0 0.0
2014-Jul-22 22:18N 56°25' E 010°55'0 0.0
2014-Jul-22 21:30N 56°25' E 010°55'0 0.0
2014-Jul-22 19:24N 56°25' E 010°55'0 0.0
2014-Jul-22 18:24N 56°25' E 010°55'0 0.0
2014-Jul-22 17:30N 56°25' E 010°55'0 0.0
2014-Jul-22 16:24N 56°25' E 010°55'0 0.0
2014-Jul-22 15:30N 56°25' E 010°55'0 0.0
2014-Jul-22 14:30N 56°25' E 010°55'31 7.8
2014-Jul-22 10:33N 56°56' E 010°51'9 8.8
2014-Jul-22 09:33N 57°04' E 010°48'8 8.4
2014-Jul-22 08:32N 57°13' E 010°45'8 7.7
2014-Jul-22 07:33N 57°20' E 010°42'8 8.4
2014-Jul-22 06:33N 57°28' E 010°44'9 8.6
2014-Jul-22 05:33N 57°37' E 010°44'8 7.7
2014-Jul-22 04:33N 57°45' E 010°44'7 7.3
2014-Jul-22 03:33N 57°47' E 010°31'9 9.0
2014-Jul-22 02:33N 57°47' E 010°14'9 9.0
2014-Jul-22 01:33N 57°48' E 009°57'9 8.8
2014-Jul-22 00:33N 57°49' E 009°41'102 7.6
2014-Jul-21 11:12N 58°02' E 006°30'5 7.3
2014-Jul-21 10:33N 58°05' E 006°23'7 7.4
2014-Jul-21 09:33N 58°09' E 006°13'7 7.1
2014-Jul-21 08:33N 58°14' E 006°02'8 8.3
2014-Jul-21 07:33N 58°20' E 005°51'9 8.6
2014-Jul-21 06:32N 58°26' E 005°39'9 8.2
2014-Jul-21 05:29N 58°33' E 005°30'8 7.3
2014-Jul-21 04:24N 58°40' E 005°22'7 8.6
2014-Jul-21 03:33N 58°46' E 005°15'8 8.0
2014-Jul-21 02:33N 58°53' E 005°07'8 7.5
2014-Jul-21 01:27N 59°00' E 004°59'  
2014-Jul-18 13:33N 66°16' E 012°13'8 8.5
2014-Jul-18 12:33N 66°15' E 012°34'9 8.8
2014-Jul-18 11:33N 66°20' E 012°52'10 9.9
2014-Jul-18 10:31N 66°30' E 012°59'1310.0
2014-Jul-18 09:11N 66°43' E 013°10'  
2014-Jul-15 21:09N 66°46' E 013°16'16 9.8
2014-Jul-15 19:32N 66°32' E 012°59'10 9.8
2014-Jul-15 18:33N 66°23' E 012°58'10 9.8
2014-Jul-15 17:31N 66°16' E 012°38'10 9.3
2014-Jul-15 16:23N 66°17' E 012°12'  
Track history (hours):
 
Tides and Currents Weather Stations Pressure Air Temp Water Temp Dewpoint Dewpoint Depression Visibility Wind Speed Wind Dir Waves Ship Positions

Wilson Lisbon

Last reported at 2014-Jul-25 09:25 UTC. Time now 2014-Jul-25 11:23 UTC.
Position N 56°25' E 010°56'.

Length 90 m; draft 5.4 m.

Type: Ship. MMSI: 212376000.

Date/timePositionNaut miles runAvg speedWind from/ knotsBaromVisibWave heightAir tempDewpointWater temp
2014-Jul-25 09:25N 56°25' E 010°56'0 0.0
2014-Jul-25 08:07N 56°25' E 010°56'0 0.0
2014-Jul-25 07:31N 56°25' E 010°56'0 0.0
2014-Jul-25 06:25N 56°25' E 010°56'0 0.0
2014-Jul-25 05:31N 56°25' E 010°56'0 0.0
2014-Jul-25 04:04N 56°25' E 010°56'0 0.0
2014-Jul-25 03:13N 56°25' E 010°56'0 0.0
2014-Jul-25 02:31N 56°25' E 010°56'0 0.0
2014-Jul-25 01:25N 56°25' E 010°56'0 0.0
2014-Jul-25 00:13N 56°25' E 010°56'0 0.0
2014-Jul-24 23:25N 56°25' E 010°56'0 0.0
2014-Jul-24 21:25N 56°25' E 010°56'0 0.0
2014-Jul-24 20:25N 56°25' E 010°56'0 0.0
2014-Jul-24 19:25N 56°25' E 010°56'0 0.0
2014-Jul-24 18:16N 56°25' E 010°56'0 0.0
2014-Jul-24 17:31N 56°25' E 010°56'0 0.0
2014-Jul-24 16:31N 56°25' E 010°56'0 0.0
2014-Jul-24 15:31N 56°25' E 010°56'0 0.0
2014-Jul-24 06:30N 56°25' E 010°55'0 0.0
2014-Jul-24 05:30N 56°25' E 010°55'0 0.0
2014-Jul-24 04:30N 56°25' E 010°55'0 0.0
2014-Jul-24 00:18N 56°25' E 010°55'0 0.0
2014-Jul-23 23:18N 56°25' E 010°55'0 0.0
2014-Jul-23 22:30N 56°25' E 010°55'0 0.0
2014-Jul-23 21:18N 56°25' E 010°55'0 0.0
2014-Jul-23 20:30N 56°25' E 010°55'0 0.0
2014-Jul-23 16:30N 56°25' E 010°55'0 0.0
2014-Jul-23 15:12N 56°25' E 010°55'0 0.0
2014-Jul-23 13:30N 56°25' E 010°55'0 0.0
2014-Jul-23 09:06N 56°25' E 010°55'0 0.0
2014-Jul-23 06:30N 56°25' E 010°55'0 0.0
2014-Jul-23 05:06N 56°25' E 010°55'0 0.0
2014-Jul-23 04:24N 56°25' E 010°55'0 0.0
2014-Jul-23 03:24N 56°25' E 010°55'0 0.0
2014-Jul-23 01:30N 56°25' E 010°55'0 0.0
2014-Jul-23 00:30N 56°25' E 010°55'0 0.0
2014-Jul-22 23:30N 56°25' E 010°55'0 0.0
2014-Jul-22 22:18N 56°25' E 010°55'0 0.0
2014-Jul-22 21:30N 56°25' E 010°55'0 0.0
2014-Jul-22 19:24N 56°25' E 010°55'0 0.0
2014-Jul-22 18:24N 56°25' E 010°55'0 0.0
2014-Jul-22 17:30N 56°25' E 010°55'0 0.0
2014-Jul-22 16:24N 56°25' E 010°55'0 0.0
2014-Jul-22 15:30N 56°25' E 010°55'0 0.0
2014-Jul-22 14:30N 56°25' E 010°55'31 7.8
2014-Jul-22 10:33N 56°56' E 010°51'9 8.8
2014-Jul-22 09:33N 57°04' E 010°48'8 8.4
2014-Jul-22 08:32N 57°13' E 010°45'8 7.7
2014-Jul-22 07:33N 57°20' E 010°42'8 8.4
2014-Jul-22 06:33N 57°28' E 010°44'9 8.6
2014-Jul-22 05:33N 57°37' E 010°44'8 7.7
2014-Jul-22 04:33N 57°45' E 010°44'7 7.3
2014-Jul-22 03:33N 57°47' E 010°31'9 9.0
2014-Jul-22 02:33N 57°47' E 010°14'9 9.0
2014-Jul-22 01:33N 57°48' E 009°57'9 8.8
2014-Jul-22 00:33N 57°49' E 009°41'102 7.6
2014-Jul-21 11:12N 58°02' E 006°30'5 7.3
2014-Jul-21 10:33N 58°05' E 006°23'7 7.4
2014-Jul-21 09:33N 58°09' E 006°13'7 7.1
2014-Jul-21 08:33N 58°14' E 006°02'8 8.3
2014-Jul-21 07:33N 58°20' E 005°51'9 8.6
2014-Jul-21 06:32N 58°26' E 005°39'9 8.2
2014-Jul-21 05:29N 58°33' E 005°30'8 7.3
2014-Jul-21 04:24N 58°40' E 005°22'7 8.6
2014-Jul-21 03:33N 58°46' E 005°15'8 8.0
2014-Jul-21 02:33N 58°53' E 005°07'8 7.5
2014-Jul-21 01:27N 59°00' E 004°59'  
2014-Jul-18 13:33N 66°16' E 012°13'8 8.5
2014-Jul-18 12:33N 66°15' E 012°34'9 8.8
2014-Jul-18 11:33N 66°20' E 012°52'10 9.9
2014-Jul-18 10:31N 66°30' E 012°59'1310.0
2014-Jul-18 09:11N 66°43' E 013°10'  
2014-Jul-15 21:09N 66°46' E 013°16'16 9.8
2014-Jul-15 19:32N 66°32' E 012°59'10 9.8
2014-Jul-15 18:33N 66°23' E 012°58'10 9.8
2014-Jul-15 17:31N 66°16' E 012°38'10 9.3
2014-Jul-15 16:23N 66°17' E 012°12'  

Dump ship's entire track history